AirNav   Duncan Aviation - Near you to keep you flying
 
 1131 users online  

KBST Belfast Municipal Airport
Belfast, Maine, USA

GOING TO BELFAST?


FAA INFORMATION EFFECTIVE 08 SEPTEMBER 2022

Location

FAA Identifier: BST
Lat/Long: 44-24-33.8000N 069-00-42.6000W
44-24.563333N 069-00.710000W
44.4093889,-69.0118333
(estimated)
Elevation: 197.6 ft. / 60.2 m (surveyed)
Variation: 18W (2000)
From city: 1 mile SW of BELFAST, ME
Time zone: UTC -4 (UTC -5 during Standard Time)
Zip code: 04915

Airport Operations

Airport use: Open to the public
Activation date: 03/1943
Control tower: no
ARTCC: BOSTON CENTER
FSS: BANGOR FLIGHT SERVICE STATION
NOTAMs facility: BGR (NOTAM-D service available)
Attendance: IREG
Wind indicator: lighted
Segmented circle: yes
Lights: ACTVT REIL RWY 15 & 33; MIRL RWY 15/33 - CTAF.
Beacon: white-green (lighted land airport)
Operates sunset to sunrise.

Airport Communications

CTAF/UNICOM: 122.975
WX AWOS-AV: 122.975 (207-930-7071)
BANGOR APPROACH: 118.925
BANGOR DEPARTURE: 118.925

Nearby radio navigation aids

VOR radial/distance  VOR name  Freq  Var
BGRr212/26.6BANGOR VORTAC114.8019W
AUGr099/34.1AUGUSTA VOR/DME114.9518W

 
NDB name  Hdg/Dist  Freq  Var  ID
BURNHAM157/22.834818WBUP -... ..- .--.

Airport Services

Parking: hangars and tiedowns
Airframe service: MINOR
Powerplant service: MINOR
Bottled oxygen: NONE
Bulk oxygen: NONE

Runway Information

Runway 15/33

Dimensions: 4000 x 100 ft. / 1219 x 30 m
Surface: asphalt, in good condition
Weight bearing capacity: 
Single wheel: 30.0
Runway edge lights: medium intensity
Runway edge markings: NRS & CNTRLN MARKINGS FADED.
RUNWAY 15  RUNWAY 33
Latitude: 44-24.789857N44-24.337253N
Longitude: 069-01.043273W069-00.376365W
Elevation: 197.5 ft.158.5 ft.
Traffic pattern: leftleft
Runway heading: 151 magnetic, 133 true331 magnetic, 313 true
Markings: nonprecision, in poor conditionnonprecision, in poor condition
Runway end identifier lights: yesyes
Touchdown point: yes, no lightsyes, no lights

Airport Ownership and Management from official FAA records

Ownership: Publicly-owned
Owner: CITY OF BELFAST
CITY HALL131 CHURCH ST
BELFAST, ME 04915
Phone 207-338-3370X600
Manager: KENN ORTMANN
22 WRIGHT BROTHERS DR.
BELFAST, ME 04915
Phone 603-970-1947

Airport Operational Statistics

Aircraft based on the field: 28
Single engine airplanes: 28
    
Aircraft operations: avg 61/week *
62% local general aviation
22% transient general aviation
16% air taxi
* for 12-month period ending 31 December 2019

Additional Remarks

A58-33 8-10 FT BRUSH 0-150 FT FM THR, 75 FT FM RWY CNTRLN.
A52-33 80 FT TALL OBSTN LGTS ALG BOTH SIDES OF PRI SFC AND TREELINE.
FMI: WWW.CITYOFBELFAST.ORG/AIRPORT.
FOR CD CTC BANGOR APCH AT 207-561-2521.
80 FT TALL OBSTN LGTS ALG BOTH SIDES OF PRI SFC AND TREE LINE.
GND TRNSPN AVBL.
AWOS AVBL VIA CTAF - 2 CLICKS OR CALL (207) 930-7071, ALSO WWW.DIGIWX-BST.COM.
FREE UNSECURED WIFI AVBL.
DEER & BIRDS ON OR INVOF ARPT.
SFC COND RPRTD MON-FRI 1400-2200Z DEC-MAR.

Instrument Procedures

NOTE: All procedures below are presented as PDF files. If you need a reader for these files, you should download the free Adobe Reader.

NOT FOR NAVIGATION. Please procure official charts for flight.
FAA instrument procedures published for use from 8 September 2022 at 0901Z to 6 October 2022 at 0900Z.

 
IAPs - Instrument Approach Procedures
RNAV (GPS) RWY 15   download (253KB)
RNAV (GPS) RWY 33   download (284KB)
NOTE: Special Take-Off Minimums/Departure Procedures apply   download (178KB)

Other nearby airports with instrument procedures:

KRKD - Knox County Regional Airport (21 nm S)
KBGR - Bangor International Airport (25 nm N)
2B7 - Pittsfield Municipal Airport (27 nm NW)
KBHB - Hancock County/Bar Harbor Airport (28 nm E)
KWVL - Waterville Robert LaFleur Airport (29 nm W)
 
Loc | Ops | Rwys | IFR | FBO | Links
Com | Nav | Svcs | Stats | Notes
Area around KBST (Belfast Municipal Airport)
 
Road maps at: MapQuest Bing Google
 
Aerial photo
WARNING: Photo may not be current or correct
Aerial photo of KBST (Belfast Municipal Airport)
Photo by Kyle Warren Photography
Photo taken 20-Feb-2017
looking northwest.

Do you have a better or more recent aerial photo of Belfast Municipal Airport that you would like to share? If so, please send us your photo.

 
Sectional chart

 
Airport distance calculator
Flying to Belfast Municipal Airport? Find the distance to fly.

From to KBST

Sunrise and sunset
Times for 05-Oct-2022
 Local
(UTC-4)
 Zulu
(UTC)
Morning civil twilight06:1110:11
Sunrise06:4010:40
Sunset18:0922:09
Evening civil twilight18:3822:38

Current date and time
Zulu (UTC)  05-Oct-2022 23:16:57
Local (UTC-4)  05-Oct-2022 19:16:57
 
METAR
KRKD 
21nm S 
052256Z AUTO VRB03KT 9SM -RA FEW021 OVC045 15/15 A2995 RMK AO2 SLP141 P0010 T01500150
KBGR 
25nm N 
052253Z 01005KT 10SM BKN085 17/13 A2997 RMK AO2 SLP147 T01720133
KBHB 
28nm E 
052256Z AUTO 02006KT 10SM OVC037 16/13 A2996 RMK AO2 SLP147 T01610133 PNO $
KWVL 
29nm W 
052256Z AUTO 36005KT 10SM FEW080 BKN110 16/12 A2995 RMK AO2 SLP170 T01560122
KAUG 
34nm W 
052253Z AUTO 33003KT 10SM OVC050 16/13 A2998 RMK AO2 RAB2159E10 SLP152 P0000 T01560133
KIWI 
40nm SW 
052253Z AUTO 00000KT 6SM -RA BR BKN037 BKN050 OVC090 15/14 A2996 RMK AO2 RAB08 SLP145 P0004 T01500139
TAF
KRKD 
21nm S 
051739Z 0518/0618 04008KT P6SM BKN015 OVC040 FM052200 03003KT 6SM -RA OVC015 FM061300 VRB04KT P6SM BKN250
KBGR 
25nm N 
051731Z 0518/0618 VRB03KT P6SM SCT035 BKN080 FM060300 36006KT P6SM VCSH OVC025 FM061400 36006KT P6SM BKN035
NOTAMs
Click for the latest NOTAMs
NOTAMs are issued by the DoD/FAA and will open in a separate window not controlled by AirNav.

 

 
 

Would you like to see your business listed on this page?

 If your business provides an interesting product or service to pilots, flight crews, aircraft, or users of the Belfast Municipal Airport, you should consider listing it here.  To start the listing process, click on the button below
 
Add a business
 

Other Pages about Belfast Municipal Airport

www.cityofbelfast.org/...
 
Update a link
 
Copyright © AirNav, LLC. All rights reserved. Privacy Policy  Contact